Find Geely Xingzuo 06 zu 02 xing

NORAD ID: 65714 Int'l Des: 2025-214 Owner: GEESP Country: CN Constellation: geesatcom operational
LEOCIRCULAR

現在のビュー

3D地球を読み込み中...

Geely Xingzuo 06 zu 02 xingについて

説明を読み込み中...

次回通過

Passes for default location (London). Set your location on the main map for personalized predictions.

高度履歴

Loading altitude history...

軌道要素

1 65714U 25214C 26150.06772181 .00002506 00000-0 33009-3 0 9994
2 65714 49.9850 32.4634 0010012 143.6824 216.4796 14.83290215 36812
Epoch: May 30, 2026 • Age: 16 hours

現在のステータス

高度 635.0 km
速度 7.54 km/s
衛星直下点 -44.76°S, 117.87°E
打ち上げ日 Sep 24, 2025
運用期間 0.6 years
タイプ other

技術仕様

分類 Payload
質量 130.00 kg
乾燥質量 130.00 kg
総質量 130.00 kg
長さ 1.00 m
直径 0.50 m
スパン 2.00 m
形状 Box + 2 pan
製造者 GWCG
バスタイプ GPS100
フェーズステータス In Orbit
所有者/国 GEESP/CN

Most Searched